Dewpoint
6 6 6 6 5 3 0 0 2 3 4 3 2 2 0 -1 -2 -7 -9 -12 -22 -23 -21 -10 -11 -9 -7 -6 -5 -4 -2 -2 -5 -6 -6 -7 -7 -6 -5 -5 -4 -5 -5 -5 -6
7 7 7 7 6 5 4 4 4 5 4 4 4 3 2 -0 -2 -6 -12 -21 -22 -22 -17 -10 -11 -11 -8 -7 -6 -3 -2 -5 -10 -10 -9 -7 -8 -5 -5 -6 -7 -5 -5 -5 -6
8 8 8 8 7 7 6 5 5 5 5 5 5 4 2 -1 -3 -14 -16 -18 -22 -20 -11 -10 -9 -9 -8 -8 -6 -7 -5 -9 -11 -10 -9 -8 -7 -7 -5 -4 -6 -6 -6 -6 -7
10 9 9 8 7 7 7 5 5 5 5 5 5 4 4 -2 -3 -15 -12 -18 -21 -17 -9 -9 -9 -9 -6 -6 -9 -7 -9 -10 -8 -8 -7 -6 -5 -5 -5 -4 -5 -5 -6 -7 -9
10 10 10 9 8 7 8 7 6 6 6 5 5 5 2 -4 -6 -11 -11 -17 -15 -11 -10 -9 -10 -11 -8 -10 -12 -8 -9 -8 -8 -7 -6 -6 -4 -3 -4 -4 -5 -5 -7 -9 -10
10 10 10 10 9 8 8 8 8 8 7 6 5 4 -2 -3 -6 -6 -12 -17 -14 -11 -9 -9 -9 -10 -10 -11 -9 -8 -9 -8 -8 -7 -7 -6 -5 -4 -4 -4 -4 -5 -7 -9 -9
9 8 10 10 9 8 8 8 7 8 8 7 5 0 -2 -4 -7 -8 -11 -16 -15 -12 -8 -7 -7 -7 -7 -5 -7 -9 -7 -6 -8 -8 -7 -3 -2 -3 -4 -3 -4 -4 -8 -8 -8
7 9 10 10 9 8 7 8 8 7 7 6 3 -2 -3 -7 -8 -10 -12 -8 -8 -7 -7 -6 -5 -4 -8 -6 -6 -4 -5 -1 -6 -7 -2 -4 -6 -3 -4 -3 -3 -6 -7 -7 -7
6 8 9 9 9 6 7 8 8 8 7 4 -1 -4 -4 -8 -9 -12 -7 -8 -6 -4 -4 -4 -4 -3 -5 -2 2 3 -0 -3 -6 -6 -2 -3 -3 -3 -3 -3 -4 -7 -6 -5 -6
-3 -1 2 4 4 4 7 7 8 7 3 1 -1 -6 -5 -8 -10 -7 -8 -5 -4 -0 -0 -3 -5 -5 -6 -4 6 4 -2 -7 -10 -7 -6 -2 -2 -4 -6 -3 -3 -5 -4 -6 -11
-9 -14 -10 -1 -0 2 4 6 6 4 -1 -1 3 4 3 -6 -5 -9 -7 -8 -4 -4 -1 -2 -3 1 -1 -3 -6 -6 -1 -5 -15 -8 -8 -6 -7 -7 -8 -6 -3 -2 -4 -8 -12
-7 -8 -15 -7 3 5 7 8 7 5 5 5 5 2 0 -2 -5 -8 -9 -12 -8 -8 -8 -3 -2 -10 -11 -11 -10 -11 -11 -13 -13 -10 -9 -8 -7 -1 -3 -3 -2 -5 -8 -10 -11
-7 -9 -9 4 6 7 8 7 7 7 5 4 1 -3 -9 -13 -12 -9 -11 -12 -11 -9 -9 -7 -10 -13 -13 -11 -9 -10 -11 -12 -10 -10 -9 -5 0 0 -3 -3 -7 -12 -14 -12 -9
-5 1 7 7 7 6 6 6 6 5 7 5 -5 -12 -14 -13 -11 -11 -10 -12 -10 -11 -12 -12 -12 -12 -12 -12 -13 -9 -9 -9 -9 -6 1 -5 1 0 -1 -3 -12 -15 -11 -10 -10
-5 3 7 7 7 7 5 6 5 4 8 -6 -11 -11 -14 -13 -13 -9 -9 -9 -8 -9 -12 -9 -12 -11 -10 -12 -13 -8 -8 -9 -7 -3 -2 -1 2 0 -4 -7 -10 -11 -9 -10 -9
-5 3 6 7 5 5 4 5 5 6 8 -0 -5 -6 1 1 -2 -8 -6 -9 -9 -9 -9 -10 -11 -11 -10 -11 -11 -10 -8 -6 -5 -1 2 1 0 -1 -4 -7 -7 -7 -9 -11 -8
-1 3 4 5 5 4 4 5 6 7 4 5 4 0 1 2 -1 -1 1 2 1 1 2 -7 -10 -10 -11 -7 -9 -8 -3 3 5 4 5 -1 -4 -2 -10 -9 -8 -8 -8 -11 -8
1 1 3 5 5 4 5 6 5 4 6 -0 -3 -1 -2 -0 -4 -7 -4 -0 -1 -2 1 1 -1 -9 -10 -9 -9 -9 -6 2 2 2 -1 -3 -4 -1 -13 -11 -12 -8 -12 -10 -7
1 4 2 3 4 5 4 5 5 5 2 3 1 4 4 -2 -4 -1 1 -0 -3 -1 2 2 -4 -10 -11 -12 -11 -8 -1 -6 -1 -2 -5 -5 -8 -9 -15 -12 -10 -11 -9 -9 -7
-1 3 2 3 4 5 5 5 3 1 1 2 3 2 3 4 0 1 4 -3 -4 -6 -4 0 2 -9 -9 -10 -10 -9 -9 -0 -0 2 -0 -8 -11 -5 -9 -7 -7 -8 -8 -8 -7
-0 2 3 1 2 4 4 3 1 1 2 3 4 5 4 5 3 5 4 -3 -5 -6 -8 -3 -1 -4 -8 -7 -7 -6 -1 -6 -6 -2 -0 -0 -2 -7 -10 -10 -9 -9 -8 -8 -6
3 3 2 2 2 2 1 2 1 1 2 2 3 3 4 3 4 4 2 2 -1 -5 -2 -6 1 1 -4 -8 -9 -8 -9 -9 -1 -1 -3 -4 -6 -6 -8 -9 -7 -8 -10 -8 -6
2 2 1 1 2 2 1 1 1 1 3 2 3 2 2 3 4 3 -1 -2 -1 -2 -2 -3 -1 1 2 -2 -8 -7 -8 -7 -7 -5 -4 -3 -3 -8 -8 -10 -8 -9 -9 -7 -7
2 2 1 1 1 1 2 2 3 2 2 2 2 2 2 3 2 3 2 -1 -2 -1 -2 -6 -1 -0 1 -0 -1 -4 -4 -9 -7 -2 -4 -7 -7 -10 -10 -9 -9 -10 -9 -8 -7
2 1 1 2 2 2 2 1 1 3 1 1 1 2 2 3 1 1 2 -1 -2 -1 -1 -3 -1 -3 -5 -8 -8 -6 -2 -5 -7 -7 -10 -7 -13 -9 -8 -10 -9 -8 -9 -8 -7
2 1 1 1 1 1 1 2 0 2 2 1 2 2 1 2 2 2 2 0 1 -1 -0 -2 1 -7 -3 -9 -10 -8 -8 -4 -6 -7 -8 -9 -9 -9 -9 -10 -8 -9 -9 -9 -7
1 2 1 1 1 1 0 1 -0 1 0 0 1 1 0 1 -1 -1 -1 -2 -2 -1 -1 -1 -0 -1 -0 -10 -4 -1 -4 -5 -5 -6 -9 -9 -10 -11 -11 -12 -9 -12 -9 -10 -7
Wind_Speed
15 15 15 15 16 15 15 15 16 17 17 18 18 19 20 20 19 9 5 7 11 12 8 10 8 2 4 4 3 3 3 4 5 7 4 6 4 4 2 1 5 4 2 3 7
17 16 16 16 15 15 15 16 17 18 19 19 19 19 20 20 20 5 10 9 12 9 5 6 5 4 7 5 3 3 3 3 6 5 5 6 4 7 2 8 7 9 8 7 10
19 18 17 17 17 16 16 16 17 18 19 20 20 19 19 18 11 5 7 11 10 8 7 7 6 5 8 5 7 5 4 6 4 6 5 2 3 2 2 6 5 9 6 7 12
20 20 19 19 18 17 16 17 17 19 21 22 23 22 19 11 6 6 9 11 9 6 8 7 7 8 4 6 5 3 11 3 5 3 1 3 1 2 11 3 4 5 7 9 9
21 21 22 20 19 18 17 18 18 20 22 23 24 22 18 7 7 10 12 10 8 8 6 7 9 7 6 2 3 9 6 3 6 2 7 6 6 6 12 11 8 6 6 7 9
21 22 25 24 20 19 19 19 20 20 22 24 24 18 12 9 8 11 9 6 3 2 4 5 6 8 11 4 2 8 10 11 8 8 8 6 8 8 4 12 9 7 8 8 11
22 22 22 23 19 20 20 19 20 21 23 24 21 14 8 11 9 10 8 4 2 1 2 5 6 3 8 5 6 5 6 10 11 11 3 5 7 12 11 7 9 9 10 9 12
19 19 18 19 19 20 25 19 21 21 23 22 16 6 7 8 11 6 3 2 7 4 3 9 5 4 2 6 4 4 5 4 5 8 5 3 5 8 8 7 8 12 11 11 15
20 20 20 19 20 24 24 21 22 22 23 16 7 4 5 5 4 7 7 5 10 8 4 4 3 3 1 2 4 8 4 8 5 6 5 6 5 4 7 10 11 11 10 13 21
19 20 24 25 25 24 23 19 20 18 13 7 4 6 7 3 5 10 7 7 3 4 5 3 2 1 2 2 2 6 6 7 3 5 5 7 13 10 14 13 14 12 9 17 24
19 20 21 21 20 20 19 12 9 4 6 8 16 23 17 6 12 1 4 4 6 4 6 8 4 6 7 12 6 2 8 12 10 4 1 7 10 8 8 11 5 4 11 15 25
20 20 18 15 15 12 6 4 5 8 9 18 19 11 8 10 4 5 4 3 4 7 7 4 5 6 4 4 3 6 7 9 2 2 1 8 12 3 3 1 1 7 11 17 29
20 17 13 11 9 5 3 4 7 8 5 6 2 4 2 3 4 1 3 3 5 10 10 8 3 3 1 3 4 4 5 5 5 8 9 8 4 4 2 3 6 4 17 24 27
20 14 9 6 4 3 4 6 4 2 3 2 3 2 3 5 2 3 2 2 3 5 7 6 4 2 2 4 3 3 6 3 7 5 3 2 4 3 5 5 2 13 19 24 32
19 10 8 3 2 1 2 1 2 3 4 5 3 2 3 5 11 2 3 1 4 8 2 2 1 3 4 3 3 2 3 4 5 5 6 2 1 1 6 3 7 7 23 27 33
18 11 4 3 2 1 4 1 4 2 4 2 3 3 2 4 5 4 3 2 4 5 6 8 3 3 3 4 3 5 3 5 3 3 2 3 3 1 1 4 7 10 21 30 32
16 13 9 1 2 1 1 1 1 2 1 1 2 1 4 4 5 4 1 1 1 3 0 4 6 4 2 2 3 3 3 2 2 2 3 3 1 4 3 1 3 8 19 30 31
14 11 9 5 3 3 1 0 1 4 4 0 2 6 5 6 2 3 3 3 4 2 2 3 3 1 3 2 2 2 0 1 3 3 3 3 4 4 4 6 6 5 22 27 31
12 11 8 5 1 1 2 1 2 6 4 7 10 3 0 1 2 3 6 1 4 2 2 3 2 4 5 2 2 2 2 1 2 2 2 4 4 1 5 7 11 15 23 27 32
11 6 7 3 1 2 1 3 3 6 6 5 3 3 4 3 2 1 4 4 3 3 2 1 3 1 3 2 4 1 2 0 1 3 4 3 3 4 6 8 8 10 19 28 31
9 4 6 3 3 3 2 4 5 7 8 4 3 5 5 5 2 2 4 4 5 3 3 1 1 1 3 4 2 2 1 2 1 1 2 3 3 4 3 4 7 9 22 27 30
2 2 5 3 2 2 2 3 6 5 4 2 1 2 2 3 4 3 3 3 5 3 3 2 2 3 2 3 2 2 2 1 2 3 2 2 5 2 4 3 4 14 21 26 28
3 4 4 4 3 2 4 1 0 3 3 3 1 2 1 3 4 4 1 4 1 1 3 3 3 3 1 1 1 3 3 3 3 2 4 3 5 6 4 3 8 15 23 25 27
2 2 2 1 1 3 3 2 1 2 1 1 2 1 2 3 6 3 2 2 2 2 3 3 3 4 1 0 3 2 3 5 3 1 3 5 3 3 5 5 9 18 22 23 26
5 4 4 1 3 2 2 1 3 1 2 2 2 4 3 3 3 3 1 2 4 3 3 2 4 2 6 7 5 3 3 7 7 5 4 3 2 5 1 1 4 13 19 23 28
6 4 3 2 5 4 3 3 3 0 2 2 3 4 1 3 5 10 2 3 1 4 2 1 2 2 4 2 4 5 8 10 6 5 8 4 7 5 4 3 8 11 17 21 24
16 8 3 4 3 2 4 5 3 3 3 6 1 4 9 3 3 2 1 2 2 1 4 2 2 1 3 2 2 6 6 10 5 4 4 4 2 4 3 6 6 7 13 16 21
Wind_Direction
346 345 343 344 345 346 346 346 346 348 349 347 345 343 339 336 331 333 311 260 292 308 327 357 295 303 288 239 226 256 270 255 268 282 70 103 175 130 248 185 186 197 198 319 320
329 334 337 335 336 337 339 341 343 344 344 344 342 342 340 335 326 303 257 292 315 315 330 334 317 271 249 209 206 231 240 311 23 10 10 125 241 154 178 221 225 218 243 238 295
314 318 324 326 326 332 332 333 336 337 338 341 340 335 338 336 337 198 265 318 328 328 343 304 298 279 248 209 207 213 232 31 36 35 10 336 218 242 209 259 274 229 178 245 308
305 306 311 315 320 323 329 328 329 330 331 332 335 336 333 333 317 267 307 325 330 343 352 308 286 256 232 219 178 275 241 355 8 43 336 277 15 319 234 261 230 222 260 300 318
301 305 307 304 309 315 319 323 325 326 328 327 331 330 333 290 267 287 313 321 1 352 339 333 297 328 263 10 314 234 276 1 271 255 254 268 254 248 271 238 217 245 279 295 304
299 301 299 293 297 307 309 315 317 321 322 322 324 322 323 282 272 299 307 329 322 21 318 344 344 320 295 282 281 357 314 284 261 232 238 245 253 218 229 223 210 229 260 285 305
294 296 297 291 292 303 308 305 309 316 317 317 316 315 289 271 272 300 317 316 303 354 326 289 287 303 332 289 323 292 296 279 228 213 258 46 266 237 229 183 216 244 266 279 310
298 292 298 293 288 296 303 302 308 311 316 311 310 307 267 268 285 291 297 284 308 313 284 263 281 295 241 322 259 258 235 283 34 130 118 130 271 51 159 186 233 248 269 308 301
290 291 293 289 288 301 298 303 312 306 308 307 313 313 267 288 280 246 295 267 274 277 295 267 331 290 330 252 289 220 258 232 153 177 128 191 275 128 192 208 235 265 295 308 311
304 296 287 286 290 290 290 296 309 304 303 308 286 285 256 286 247 286 285 310 289 274 254 222 182 213 230 143 233 314 284 326 307 176 214 235 255 267 249 203 239 254 283 316 319
316 306 295 292 296 294 288 316 308 309 226 244 284 285 292 297 304 337 268 293 252 241 247 175 232 234 222 195 242 279 254 281 287 78 287 243 268 269 258 221 237 317 310 318 324
325 317 306 301 309 302 301 244 249 290 294 282 271 275 277 279 278 218 324 288 192 264 193 180 231 44 63 28 314 290 281 278 333 89 228 261 272 267 296 311 172 290 303 337 331
334 329 320 320 322 356 260 310 305 295 270 334 245 289 295 324 293 90 2 351 262 279 269 247 54 117 311 266 263 284 266 304 310 333 255 290 278 113 129 188 227 38 356 337 335
341 346 341 351 1 19 326 312 310 287 293 189 107 44 342 312 257 256 347 329 267 292 346 281 83 19 283 280 76 301 43 7 297 325 291 95 288 192 191 232 122 14 349 341 334
343 344 357 318 325 340 36 6 141 330 301 31 64 357 344 356 323 150 295 226 268 302 6 273 243 222 281 34 77 14 4 288 291 270 312 117 65 120 187 311 338 352 342 337 339
347 337 311 325 335 326 60 110 127 67 235 122 8 15 15 222 258 254 265 283 279 295 242 269 79 315 38 65 360 353 278 215 245 236 260 168 141 195 32 242 309 323 335 336 341
349 1 355 347 273 182 100 269 67 177 92 255 299 66 241 252 221 202 195 276 239 10 199 179 193 102 22 246 178 232 296 296 237 208 251 219 207 245 88 62 211 282 328 342 345
346 351 6 4 194 221 284 7 105 297 190 134 262 269 247 2 157 280 254 240 186 80 317 284 257 116 139 15 8 55 229 233 279 331 329 216 241 236 139 122 22 359 340 345 351
339 349 348 352 322 216 309 59 247 9 5 352 311 234 271 348 303 330 255 278 75 123 191 339 130 99 52 57 334 133 214 54 290 220 280 187 79 142 77 19 355 341 342 348 353
320 325 320 312 328 163 88 249 265 40 349 343 294 356 295 304 316 66 313 26 83 27 64 9 291 98 138 186 49 35 136 356 248 317 304 274 135 181 326 321 328 329 341 347 355
318 315 299 329 239 273 190 247 341 65 28 17 333 321 308 319 295 270 276 95 41 23 296 3 127 172 158 204 124 148 155 231 289 107 208 310 263 211 232 284 310 314 342 354 354
308 256 308 171 243 293 238 4 346 352 27 53 53 318 277 329 290 245 319 79 42 340 272 46 317 264 97 69 27 346 348 290 154 270 215 164 277 147 200 238 307 331 352 360 360
268 272 293 193 233 235 223 241 182 314 18 358 313 212 140 287 291 252 47 65 118 281 338 355 249 290 284 40 116 238 169 114 110 91 230 145 275 221 160 61 38 356 3 0 5
265 275 281 171 220 314 23 286 222 225 295 309 286 283 266 255 210 304 242 142 145 210 274 303 279 235 257 245 136 197 181 183 194 180 203 229 311 40 19 26 360 359 5 2 14
220 238 246 193 218 182 13 328 277 236 191 217 249 236 319 298 274 243 199 172 194 231 225 275 257 209 268 264 174 239 175 189 193 217 176 240 246 275 126 25 357 1 7 8 14
195 190 230 356 103 121 191 230 236 58 226 246 228 324 189 248 272 293 322 189 218 175 183 70 266 306 278 138 210 255 224 196 209 267 278 285 293 169 116 108 64 14 17 7 10
212 205 205 196 135 161 219 233 228 141 245 251 280 308 302 309 343 295 260 85 81 191 195 212 290 267 264 214 287 282 221 191 171 197 189 189 213 140 150 89 66 28 32 11 10
Height
1517 1515 1513 1511 1508 1505 1503 1500 1498 1496 1493 1490 1487 1485 1482 1479 1476 1474 1473 1473 1471 1470 1468 1467 1469 1469 1470 1469 1470 1470 1472 1467 1455 1448 1452 1456 1458 1462 1463 1464 1466 1468 1469 1469 1468
1518 1515 1512 1510 1508 1505 1503 1500 1498 1495 1492 1489 1486 1484 1480 1477 1474 1473 1473 1472 1470 1468 1467 1467 1468 1468 1469 1468 1468 1469 1466 1455 1455 1454 1454 1456 1459 1460 1464 1464 1464 1466 1467 1468 1467
1516 1514 1511 1509 1507 1504 1501 1499 1497 1494 1491 1488 1485 1483 1480 1476 1473 1470 1472 1471 1470 1468 1467 1468 1467 1467 1465 1465 1464 1461 1462 1456 1456 1457 1458 1457 1460 1461 1463 1463 1460 1462 1462 1462 1464
1513 1511 1509 1507 1505 1502 1499 1497 1495 1493 1490 1487 1484 1481 1479 1476 1476 1470 1470 1470 1469 1468 1468 1470 1468 1467 1464 1462 1461 1463 1455 1457 1458 1459 1460 1460 1460 1461 1461 1461 1460 1460 1461 1462 1461
1510 1508 1507 1505 1502 1500 1498 1496 1494 1491 1489 1485 1482 1480 1478 1476 1473 1469 1469 1469 1468 1469 1470 1470 1468 1466 1463 1460 1461 1460 1457 1456 1457 1459 1460 1459 1459 1459 1457 1458 1458 1459 1462 1462 1460
1506 1505 1503 1501 1499 1497 1495 1493 1491 1489 1486 1483 1480 1478 1477 1476 1470 1469 1468 1468 1468 1469 1470 1470 1469 1469 1466 1462 1462 1460 1459 1456 1455 1456 1457 1457 1457 1456 1453 1455 1456 1459 1460 1459 1458
1502 1501 1499 1497 1495 1493 1492 1490 1488 1486 1483 1481 1478 1475 1474 1473 1468 1467 1466 1466 1467 1467 1468 1468 1467 1467 1465 1461 1461 1461 1460 1454 1449 1452 1455 1456 1457 1450 1452 1454 1456 1457 1457 1458 1456
1498 1497 1495 1492 1490 1490 1488 1487 1485 1482 1480 1477 1475 1473 1471 1468 1467 1466 1465 1466 1465 1465 1466 1465 1465 1465 1465 1463 1461 1461 1457 1457 1447 1448 1456 1460 1452 1446 1450 1453 1455 1456 1456 1453 1452
1494 1493 1491 1489 1487 1486 1484 1483 1482 1479 1476 1475 1474 1472 1469 1466 1465 1464 1464 1464 1464 1464 1463 1464 1464 1464 1464 1463 1463 1454 1454 1447 1451 1450 1454 1459 1451 1449 1450 1452 1453 1453 1452 1451 1448
1489 1488 1486 1484 1483 1481 1479 1479 1478 1474 1474 1473 1473 1476 1469 1465 1463 1462 1461 1461 1463 1463 1463 1464 1464 1464 1463 1463 1462 1459 1452 1445 1445 1452 1452 1455 1449 1447 1446 1449 1450 1450 1450 1448 1446
1486 1483 1481 1480 1478 1477 1475 1476 1477 1474 1473 1471 1469 1466 1465 1463 1461 1460 1459 1460 1461 1462 1460 1461 1463 1460 1452 1456 1453 1453 1457 1454 1447 1454 1455 1452 1448 1445 1444 1445 1447 1448 1447 1446 1444
1483 1480 1477 1476 1474 1472 1472 1472 1473 1475 1469 1465 1463 1463 1462 1461 1462 1460 1460 1461 1459 1456 1453 1456 1457 1452 1451 1453 1454 1454 1453 1452 1449 1453 1457 1450 1443 1443 1443 1444 1446 1446 1446 1445 1440
1480 1476 1475 1474 1473 1471 1471 1472 1472 1471 1470 1461 1462 1464 1463 1463 1461 1459 1460 1457 1457 1455 1450 1450 1450 1451 1452 1451 1454 1452 1452 1452 1454 1453 1448 1446 1440 1444 1444 1444 1444 1445 1444 1442 1438
1479 1475 1474 1473 1474 1472 1472 1469 1471 1471 1469 1461 1463 1464 1465 1464 1462 1459 1459 1460 1456 1453 1450 1449 1452 1452 1453 1451 1455 1456 1454 1457 1459 1461 1459 1445 1455 1443 1442 1445 1443 1442 1443 1441 1435
1480 1475 1474 1472 1472 1473 1474 1471 1469 1472 1467 1463 1464 1465 1464 1467 1465 1460 1460 1459 1458 1453 1454 1449 1449 1453 1453 1452 1455 1455 1458 1460 1460 1462 1459 1447 1461 1440 1439 1445 1443 1442 1441 1439 1434
1480 1476 1474 1474 1473 1473 1472 1474 1469 1473 1465 1463 1466 1464 1465 1462 1463 1460 1460 1460 1459 1456 1451 1450 1453 1455 1454 1457 1458 1459 1458 1458 1457 1459 1467 1453 1458 1448 1453 1455 1445 1442 1441 1438 1433
1479 1477 1474 1471 1473 1473 1471 1475 1471 1469 1468 1465 1463 1464 1466 1460 1452 1456 1463 1459 1461 1466 1457 1447 1450 1457 1457 1458 1460 1459 1457 1463 1448 1458 1444 1453 1457 1458 1446 1445 1448 1444 1441 1438 1434
1480 1476 1473 1474 1473 1473 1474 1474 1476 1456 1462 1464 1462 1460 1460 1454 1452 1455 1455 1455 1455 1460 1462 1458 1457 1453 1458 1460 1460 1458 1462 1462 1459 1454 1446 1455 1473 1451 1442 1444 1445 1444 1443 1439 1433
1481 1476 1474 1475 1474 1475 1477 1474 1469 1462 1464 1464 1458 1459 1453 1457 1459 1455 1449 1450 1455 1461 1466 1463 1452 1459 1460 1460 1463 1460 1464 1466 1468 1462 1461 1438 1443 1442 1442 1445 1446 1444 1442 1437 1432
1480 1478 1475 1476 1475 1475 1477 1474 1465 1465 1467 1464 1465 1457 1461 1456 1460 1456 1455 1459 1460 1463 1465 1465 1466 1455 1463 1463 1463 1461 1465 1467 1469 1459 1459 1429 1427 1455 1454 1453 1448 1443 1441 1438 1432
1481 1477 1476 1476 1478 1477 1476 1471 1466 1469 1469 1470 1469 1469 1464 1466 1463 1464 1457 1462 1462 1466 1467 1466 1469 1463 1462 1461 1455 1464 1465 1465 1468 1468 1473 1464 1450 1454 1459 1456 1452 1445 1443 1439 1431
1479 1477 1476 1477 1482 1477 1474 1471 1474 1469 1471 1472 1473 1473 1471 1472 1468 1465 1457 1465 1469 1468 1469 1467 1467 1468 1455 1461 1460 1459 1457 1457 1466 1470 1477 1482 1458 1449 1451 1450 1448 1446 1443 1439 1434
1478 1478 1475 1477 1478 1478 1473 1472 1474 1474 1472 1474 1473 1475 1475 1473 1467 1461 1460 1470 1470 1471 1470 1469 1468 1464 1459 1466 1462 1460 1458 1462 1468 1475 1474 1479 1453 1445 1448 1449 1448 1447 1443 1439 1435
1479 1478 1477 1476 1476 1476 1473 1473 1474 1473 1474 1475 1475 1475 1474 1470 1466 1464 1465 1469 1469 1470 1471 1470 1467 1464 1456 1455 1458 1464 1459 1461 1464 1471 1471 1469 1454 1446 1448 1452 1449 1447 1443 1440 1436
1476 1475 1474 1473 1474 1476 1476 1476 1474 1471 1474 1475 1473 1473 1472 1469 1468 1465 1465 1468 1469 1469 1469 1470 1468 1460 1454 1450 1452 1452 1458 1463 1468 1457 1467 1462 1465 1454 1452 1453 1451 1450 1445 1440 1435
1472 1474 1473 1471 1471 1474 1476 1475 1472 1471 1473 1471 1474 1472 1472 1471 1470 1464 1464 1465 1463 1468 1468 1471 1460 1456 1455 1444 1449 1449 1449 1455 1461 1457 1455 1456 1456 1445 1450 1450 1452 1452 1449 1441 1437
1467 1468 1469 1471 1472 1474 1472 1471 1469 1471 1470 1471 1472 1472 1469 1468 1469 1467 1466 1465 1466 1466 1467 1469 1464 1461 1449 1445 1456 1449 1445 1446 1451 1453 1450 1455 1444 1446 1450 1451 1454 1454 1453 1447 1438